CW9861 Weather Reports


time (UTC)temp
C
wind
direction
speed
KPH
gust
KPH
rain 1hr
cm
rain 24hr
cm
rain mn
cm
humidity
%
barometer
mb
20260509064458 11 266 4.8 12.9 0.00 0.00 0.00 56 1002.9
20260509063958 11 244 1.6 11.3 0.00 0.00 0.00 53 1003.0
20260509063459 11 247 3.2 11.3 0.00 0.00 0.00 51 1003.1
20260509062959 10 253 4.8 9.7 0.00 0.00 0.00 48 1003.1
20260509062458 10 146 4.8 14.5 0.00 0.00 0.00 45 1003.1
20260509061959 10 103 4.8 14.5 0.00 0.00 0.00 43 1003.1
20260509061459 10 204 1.6 12.9 0.00 0.00 0.00 41 1003.1
20260509060958 10 176 4.8 12.9 0.00 0.00 0.00 40 1003.3
20260509060458 10 258 3.2 9.7 0.00 0.00 0.00 40 1003.4
20260509055958 10 181 1.6 9.7 0.00 0.00 0.00 40 1003.4
20260509055459 10 199 3.2 8.0 0.00 0.00 0.00 40 1003.5
20260509054958 10 190 3.2 9.7 0.00 0.00 0.00 40 1003.5
20260509054458 10 190 1.6 9.7 0.00 0.00 0.00 39 1003.5
20260509053958 10 240 3.2 6.4 0.00 0.00 0.00 39 1003.6
20260509053458 9 169 1.6 4.8 0.00 0.00 0.00 40 1003.6
20260509052959 9 155 1.6 4.8 0.00 0.00 0.00 40 1003.7
20260509052458 9 243 0.0 6.4 0.00 0.00 0.00 41 1003.7
20260509051959 9 203 1.6 6.4 0.00 0.00 0.00 41 1003.6
20260509051459 9 218 1.6 6.4 0.00 0.00 0.00 41 1003.8
20260509050958 8 285 1.6 8.0 0.00 0.00 0.00 42 1003.8
20260509050459 8 147 3.2 8.0 0.00 0.00 0.00 42 1003.8
20260509045958 8 222 1.6 6.4 0.00 0.00 0.00 43 1003.9
20260509045458 8 209 1.6 6.4 0.00 0.00 0.00 43 1003.9
20260509044958 7 223 1.6 4.8 0.00 0.00 0.00 44 1003.7
20260509044459 7 105 0.0 4.8 0.00 0.00 0.00 45 1003.8
20260509043958 7 145 0.0 3.2 0.00 0.00 0.00 45 1003.8
20260509043459 7 130 0.0 3.2 0.00 0.00 0.00 47 1003.8
20260509042958 6 99 0.0 6.4 0.00 0.00 0.00 48 1003.9
20260509042459 6 151 1.6 6.4 0.00 0.00 0.00 48 1003.8
20260509041958 6 224 1.6 4.8 0.00 0.00 0.00 50 1004.0
20260509041458 6 87 0.0 3.2 0.00 0.00 0.00 51 1004.0
20260509040958 6 193 1.6 3.2 0.00 0.00 0.00 55 1004.0
20260509040458 6 182 0.0 1.6 0.00 0.00 0.00 59 1004.1
20260509040004 6 182 0.0 1.6 0.00 0.00 0.00 59 1004.2
20260509035459 7 182 0.0 1.6 0.00 0.00 0.00 59 1004.2
20260509034959 7 182 0.0 1.6 0.00 0.00 0.00 59 1004.2
20260509034459 7 182 0.0 1.6 0.00 0.00 0.00 56 1004.5
20260509034000 7 176 0.0 1.6 0.00 0.00 0.00 55 1004.7
20260509033459 7 168 0.0 1.6 0.00 0.00 0.00 53 1004.6
20260509032959 7 168 0.0 1.6 0.00 0.00 0.00 52 1004.5
20260509032459 7 165 0.0 1.6 0.00 0.00 0.00 53 1004.5
20260509031959 7 241 0.0 1.6 0.00 0.00 0.00 53 1004.6
20260509031459 7 241 0.0 1.6 0.00 0.00 0.00 52 1004.7
20260509030958 7 246 0.0 3.2 0.00 0.00 0.00 52 1004.7
20260509030459 7 250 1.6 3.2 0.00 0.00 0.00 53 1005.0
20260509025959 7 246 0.0 3.2 0.00 0.00 0.00 54 1004.8
20260509025458 7 246 0.0 3.2 0.00 0.00 0.00 53 1004.9
20260509025000 7 246 0.0 1.6 0.00 0.00 0.00 56 1005.0
20260509024459 7 246 0.0 1.6 0.00 0.00 0.00 55 1005.1
20260509024000 8 246 0.0 1.6 0.00 0.00 0.00 55 1004.9
20260509023459 8 246 0.0 1.6 0.00 0.00 0.00 55 1005.1
20260509022959 8 246 0.0 1.6 0.00 0.00 0.00 54 1005.1
20260509022500 8 246 0.0 0.0 0.00 0.00 0.00 53 1005.0
20260509014959 10 246 0.0 1.6 0.00 0.00 0.00 43 1004.9
20260509014458 10 246 0.0 1.6 0.00 0.00 0.00 43 1004.9
20260509013959 11 246 0.0 1.6 0.00 0.00 0.00 43 1004.9
20260509013459 11 246 0.0 0.0 0.00 0.00 0.00 41 1004.9
20260509012959 11 246 0.0 0.0 0.00 0.00 0.00 41 1005.0
20260509012459 12 246 0.0 0.0 0.00 0.00 0.00 40 1004.9
20260509011958 12 246 0.0 0.0 0.00 0.00 0.00 40 1004.9
20260509011500 12 246 0.0 0.0 0.00 0.00 0.00 39 1005.0
20260509010959 13 246 0.0 0.0 0.00 0.00 0.00 38 1004.9
20260509010500 13 246 0.0 0.0 0.00 0.00 0.00 38 1004.9
20260509010001 13 246 0.0 0.0 0.00 0.00 0.00 37 1005.0
20260509005500 14 246 0.0 0.0 0.00 0.00 0.00 36 1005.0
20260509005001 14 246 0.0 0.0 0.00 0.00 0.00 36 1005.0
20260509004500 15 246 0.0 0.0 0.00 0.00 0.00 35 1005.0
20260509004000 15 246 0.0 1.6 0.00 0.00 0.00 35 1005.0
20260509003501 15 246 0.0 1.6 0.00 0.00 0.00 34 1004.9
20260509003000 15 246 0.0 0.0 0.00 0.00 0.00 33 1005.0
20260509002500 15 246 0.0 1.6 0.00 0.00 0.00 32 1005.0
20260509002000 15 246 0.0 3.2 0.00 0.00 0.00 32 1005.0
20260509001500 15 238 0.0 3.2 0.00 0.00 0.00 32 1005.1
20260509001000 15 253 0.0 6.4 0.00 0.00 0.00 33 1005.2
20260509000500 16 218 1.6 8.0 0.00 0.00 0.00 32 1005.2
20260508235959 16 225 1.6 8.0 0.00 0.00 0.00 32 1005.4
20260508235459 15 229 1.6 8.0 0.00 0.00 0.00 32 1005.4
20260508234958 16 276 1.6 8.0 0.00 0.00 0.00 32 1005.4
20260508234500 16 260 3.2 14.5 0.00 0.00 0.00 33 1005.4
20260508233958 16 328 4.8 14.5 0.00 0.00 0.00 32 1005.4
20260508233458 16 282 3.2 9.7 0.00 0.00 0.00 33 1005.4
20260508232959 16 243 3.2 8.0 0.00 0.00 0.00 34 1005.4
20260508232459 16 251 3.2 9.7 0.00 0.00 0.00 33 1005.4
20260508231959 16 266 3.2 9.7 0.00 0.00 0.00 33 1005.4
20260508231458 16 334 4.8 12.9 0.00 0.00 0.00 32 1005.4
20260508220459 17 337 4.8 12.9 0.00 0.00 0.00 32 1005.4
20260508215958 17 276 3.2 12.9 0.00 0.00 0.00 32 1005.5
20260508215459 17 340 4.8 9.7 0.00 0.00 0.00 31 1005.5
20260508214958 17 259 3.2 8.0 0.00 0.00 0.00 32 1005.5
20260508214459 17 260 4.8 12.9 0.00 0.00 0.00 28 1005.4
20260508213959 17 257 4.8 14.5 0.00 0.00 0.00 31 1005.4
20260508213459 17 266 6.4 16.1 0.00 0.00 0.00 29 1005.5
20260508205959 17 293 4.8 16.1 0.00 0.00 0.00 30 1005.7
20260508205458 17 336 9.7 16.1 0.00 0.00 0.00 30 1005.8
20260508204958 17 226 6.4 16.1 0.00 0.00 0.00 28 1005.7
20260508204458 17 355 6.4 14.5 0.00 0.00 0.00 30 1005.7
20260508203959 17 217 6.4 16.1 0.00 0.00 0.00 30 1005.8
20260508203458 17 324 8.0 16.1 0.00 0.00 0.00 29 1005.8
20260508202959 18 260 4.8 8.0 0.00 0.00 0.00 29 1006.0
20260508202456 18 254 4.8 14.5 0.00 0.00 0.00 31 1006.2
20260508201956 18 209 6.4 14.5 0.00 0.00 0.00 29 1006.1
20260508201457 18 305 4.8 14.5 0.00 0.00 0.00 29 1006.1
20260508200957 18 221 6.4 14.5 0.00 0.00 0.00 29 1006.1
20260508200457 18 281 3.2 14.5 0.00 0.00 0.00 30 1006.2
20260508195958 18 307 6.4 17.7 0.00 0.00 0.00 29 1006.3
20260508192456 18 195 6.4 12.9 0.00 0.00 0.00 32 1006.7
20260508191956 18 199 4.8 12.9 0.00 0.00 0.00 33 1006.7
20260508191455 17 318 6.4 11.3 0.00 0.00 0.00 31 1006.7
20260508190956 17 299 4.8 14.5 0.00 0.00 0.00 34 1006.7
20260508190455 17 305 6.4 14.5 0.00 0.00 0.00 32 1006.8
20260508185958 17 224 6.4 14.5 0.00 0.00 0.00 32 1006.8
20260508185457 16 236 6.4 12.9 0.00 0.00 0.00 33 1006.9
20260508184957 17 352 3.2 11.3 0.00 0.00 0.00 39 1007.0
20260508184457 17 325 4.8 11.3 0.00 0.00 0.00 37 1007.0
20260508183957 16 266 6.4 16.1 0.00 0.00 0.00 37 1007.0
20260508183458 17 271 6.4 16.1 0.00 0.00 0.00 37 1007.0
20260508182958 17 213 6.4 14.5 0.00 0.00 0.00 36 1007.1
20260508182457 16 266 4.8 17.7 0.00 0.00 0.00 37 1007.3
20260508174956 16 230 3.2 9.7 0.00 0.00 0.00 37 1007.5
20260508174456 16 350 3.2 12.9 0.00 0.00 0.00 39 1007.6
20260508173956 15 220 4.8 12.9 0.00 0.00 0.00 32 1007.9
20260508173456 16 205 1.6 17.7 0.00 0.00 0.00 34 1008.0
20260508172956 16 220 6.4 17.7 0.00 0.00 0.00 35 1008.1
20260508172456 16 280 4.8 9.7 0.00 0.00 0.00 37 1008.1
20260508171955 16 261 3.2 9.7 0.00 0.00 0.00 36 1008.2
20260508171457 16 23 3.2 14.5 0.00 0.00 0.00 37 1008.4
20260508170956 16 209 6.4 16.1 0.00 0.00 0.00 36 1008.4
20260508170455 16 257 6.4 16.1 0.00 0.00 0.00 32 1008.4
20260508165956 16 271 4.8 14.5 0.00 0.00 0.00 33 1008.4
20260508165456 16 318 4.8 17.7 0.00 0.00 0.00 32 1008.6
20260508164956 16 183 6.4 17.7 0.00 0.00 0.00 31 1008.7
20260508164456 16 294 3.2 12.9 0.00 0.00 0.00 34 1008.8
20260508163957 16 244 4.8 17.7 0.00 0.00 0.00 31 1008.8
20260508163456 16 339 4.8 19.3 0.00 0.00 0.00 32 1008.9
20260508162955 16 237 8.0 16.1 0.00 0.00 0.00 33 1008.9
20260508162456 16 276 4.8 16.1 0.00 0.00 0.00 32 1008.9
20260508161956 16 302 6.4 11.3 0.00 0.00 0.00 33 1009.0
20260508161456 16 276 4.8 12.9 0.00 0.00 0.00 35 1008.9
20260508160956 15 46 3.2 12.9 0.00 0.00 0.00 37 1008.9
20260508160456 15 220 3.2 11.3 0.00 0.00 0.00 36 1008.9
20260508155956 15 217 3.2 14.5 0.00 0.00 0.00 34 1009.0
20260508155456 15 311 6.4 14.5 0.00 0.00 0.00 36 1009.1
20260508154956 15 159 1.6 14.5 0.00 0.00 0.00 32 1009.2
20260508154456 15 305 4.8 9.7 0.00 0.00 0.00 40 1009.2
20260508153956 15 258 4.8 9.7 0.00 0.00 0.00 34 1009.2
20260508153456 15 271 3.2 14.5 0.00 0.00 0.00 35 1009.2
20260508152956 15 258 6.4 16.1 0.00 0.00 0.00 37 1009.3
20260508152456 15 145 6.4 16.1 0.00 0.00 0.00 33 1009.3
20260508151956 15 232 6.4 14.5 0.00 0.00 0.00 36 1009.4
20260508151456 14 297 4.8 14.5 0.00 0.00 0.00 36 1009.4
20260508150956 14 233 3.2 20.9 0.00 0.00 0.00 33 1009.3
20260508150456 14 237 8.0 20.9 0.00 0.00 0.00 35 1009.4
20260508145957 14 211 3.2 8.0 0.00 0.00 0.00 40 1009.4
20260508145456 14 325 3.2 12.9 0.00 0.00 0.00 42 1009.5
20260508144957 14 242 6.4 12.9 0.00 0.00 0.00 41 1009.4
20260508144456 13 231 3.2 8.0 0.00 0.00 0.00 39 1009.5
20260508143956 13 303 3.2 8.0 0.00 0.00 0.00 40 1009.6
20260508143456 13 217 3.2 8.0 0.00 0.00 0.00 40 1009.5
20260508142956 13 164 4.8 12.9 0.00 0.00 0.00 38 1009.5
20260508142456 13 222 8.0 12.9 0.00 0.00 0.00 39 1009.6
20260508141956 13 146 4.8 9.7 0.00 0.00 0.00 42 1009.7
20260508141456 13 276 4.8 8.0 0.00 0.00 0.00 45 1009.8
20260508140956 12 334 4.8 8.0 0.00 0.00 0.00 46 1009.8
20260508140456 12 208 4.8 8.0 0.00 0.00 0.00 44 1009.7
20260508135959 12 322 4.8 8.0 0.00 0.00 0.00 47 1009.7
20260508135457 12 221 3.2 8.0 0.00 0.00 0.00 51 1009.8
20260508134957 12 197 1.6 8.0 0.00 0.00 0.00 53 1009.8
20260508134456 12 304 4.8 8.0 0.00 0.00 0.00 53 1009.8
20260508133958 11 213 1.6 8.0 0.00 0.00 0.00 58 1009.8
20260508133457 11 239 3.2 6.4 0.00 0.00 0.00 59 1009.8
20260508132957 11 320 1.6 4.8 0.00 0.00 0.00 62 1009.8
20260508132457 11 219 1.6 8.0 0.00 0.00 0.00 60 1010.0
20260508131958 11 211 3.2 8.0 0.00 0.00 0.00 61 1010.1
20260508131457 11 244 1.6 4.8 0.00 0.00 0.00 61 1010.1
20260508130957 10 266 0.0 6.4 0.00 0.00 0.00 65 1010.1
20260508130457 10 221 1.6 6.4 0.00 0.00 0.00 63 1010.1
20260508125958 10 220 1.6 4.8 0.00 0.00 0.00 64 1010.2
20260508125457 9 213 1.6 4.8 0.00 0.00 0.00 69 1010.1
20260508124958 8 218 1.6 4.8 0.00 0.00 0.00 74 1010.2
20260508124457 5 246 0.0 4.8 0.00 0.00 0.00 90 1010.2
20260508123957 4 180 1.6 4.8 0.00 0.00 0.00 91 1010.1
20260508123456 3 181 0.0 3.2 0.00 0.00 0.00 91 1010.2
20260508122957 3 181 1.6 3.2 0.00 0.00 0.00 91 1010.1
20260508122458 2 220 1.6 3.2 0.00 0.00 0.00 91 1010.1
20260508121957 2 55 0.0 1.6 0.00 0.00 0.00 90 1010.0
20260508121456 1 22 0.0 0.0 0.00 0.00 0.00 90 1010.0
20260508120957 1 22 0.0 0.0 0.00 0.00 0.00 90 1009.8
20260508120457 0 22 0.0 0.0 0.00 0.00 0.00 90 1009.6
20260508115955 0 22 0.0 0.0 0.00 0.00 0.00 89 1009.7
20260508115455 0 22 0.0 0.0 0.00 0.00 0.00 89 1009.6
20260508114956 0 22 0.0 0.0 0.00 0.00 0.00 88 1009.7
20260508114455 0 22 0.0 0.0 0.00 0.00 0.00 88 1009.5
20260508113955 0 22 0.0 0.0 0.00 0.00 0.00 88 1009.5
20260508113455 -1 22 0.0 0.0 0.00 0.00 0.00 88 1009.5
20260508112955 -1 22 0.0 0.0 0.00 0.00 0.00 87 1009.5
20260508105455 -1 22 0.0 0.0 0.00 0.00 0.00 87 1009.4
20260508104955 -1 22 0.0 0.0 0.00 0.00 0.00 86 1009.4
20260508104455 -1 22 0.0 0.0 0.00 0.00 0.00 86 1009.4
20260508103955 -1 22 0.0 0.0 0.00 0.00 0.00 86 1009.4
20260508103455 -1 22 0.0 0.0 0.00 0.00 0.00 86 1009.4
20260508102956 -1 22 0.0 0.0 0.00 0.00 0.00 86 1009.3
20260508102455 -1 22 0.0 0.0 0.00 0.00 0.00 85 1009.4
20260508101957 -1 22 0.0 0.0 0.00 0.00 0.00 85 1009.4
20260508101455 -1 22 0.0 0.0 0.00 0.00 0.00 85 1009.4
20260508100955 -1 22 0.0 0.0 0.00 0.00 0.00 85 1009.5
20260508100456 -1 22 0.0 0.0 0.00 0.00 0.00 85 1009.5
20260508095956 -1 22 0.0 0.0 0.00 0.00 0.00 85 1009.5
20260508095456 0 22 0.0 0.0 0.00 0.00 0.00 85 1009.6
20260508091455 0 22 0.0 0.0 0.00 0.00 0.00 84 1009.7
20260508090955 0 22 0.0 0.0 0.00 0.00 0.00 83 1009.6
20260508090455 0 22 0.0 0.0 0.00 0.00 0.00 83 1009.6
20260508085958 0 22 0.0 0.0 0.00 0.00 0.00 83 1009.6
20260508085457 0 22 0.0 0.0 0.00 0.00 0.00 83 1009.6
20260508084956 0 22 0.0 0.0 0.00 0.00 0.00 83 1009.6
20260508084457 0 22 0.0 0.0 0.00 0.00 0.00 83 1009.6
20260508083958 0 22 0.0 0.0 0.00 0.00 0.00 83 1009.6
20260508083456 0 22 0.0 0.0 0.00 0.00 0.00 83 1009.6
20260508082957 0 22 0.0 0.0 0.00 0.00 0.00 83 1009.6
20260508082456 0 22 0.0 0.0 0.00 0.00 0.00 82 1009.7
20260508081955 0 22 0.0 0.0 0.00 0.00 0.00 83 1009.7
20260508081456 0 22 0.0 0.0 0.00 0.00 0.00 83 1009.8
20260508080956 1 22 0.0 0.0 0.00 0.00 0.00 83 1009.8
20260508080455 1 22 0.0 0.0 0.00 0.00 0.00 82 1009.9
20260508075956 1 22 0.0 0.0 0.00 0.00 0.00 82 1009.9
20260508075457 1 22 0.0 0.0 0.00 0.00 0.00 83 1009.8
20260508074957 1 22 0.0 0.0 0.00 0.00 0.00 83 1009.9
20260508074457 1 22 0.0 1.6 0.00 0.00 0.00 83 1009.8
20260508073957 1 22 0.0 1.6 0.00 0.00 0.00 82 1010.0
20260508073457 1 22 0.0 3.2 0.00 0.00 0.00 82 1009.9
20260508072956 1 22 1.6 3.2 0.00 0.00 0.00 81 1010.0
20260508072456 1 22 0.0 0.0 0.00 0.00 0.00 81 1009.9
20260508071956 1 22 0.0 0.0 0.00 0.00 0.00 81 1009.8
20260508071456 2 22 0.0 3.2 0.00 0.00 0.00 81 1009.8
20260508070957 2 22 0.0 3.2 0.00 0.00 0.00 81 1009.9
20260508070457 2 22 0.0 0.0 0.00 0.00 0.00 80 1009.9
20260508065957 2 22 0.0 0.0 0.00 0.00 0.00 80 1010.0
20260508065455 2 22 0.0 0.0 0.00 0.00 0.00 79 1010.0
20260508064955 2 22 0.0 0.0 0.00 0.00 0.00 79 1009.9